Regional Weather Roundup
Issued by NWS Bismarck, ND

Home | Current Version | Previous Version | Text Only | Print | Product List | Glossary On
Versions: 1 2 3 4 5 6 7 8 9 10 11 12 13 14 15 16 17 18 19 20 21 22 23 24 25 26 27 28 29 30 31 32 33 34 35 36 37 38 39 40 41 42 43 44 45 46 47 48 49 50
000
ASUS43 KBIS 231020
RWRBIS

NWR BROADCAST TEXT
NATIONAL WEATHER SERVICE BISMARCK ND
500 AM CDT SAT MAY 23 2015

NOTE: "FAIR" INDICATES FEW OR NO CLOUDS BELOW 12,000 FEET WITH NO
SIGNIFICANT WEATHER AND/OR OBSTRUCTIONS TO VISIBILITY.


CITY           SKY/WX    TMP DP  RH WIND       PRES   REMARKS
WILLISTON      CLEAR     46  38  73 NE5       30.11R
MINOT          PTCLDY    55  38  52 SW10      30.10S
MINOT AFB      PTCLDY    55  40  56 W5        30.09S
BISMARCK       PTCLDY    43  40  89 SE6       30.16S
DICKINSON      PTCLDY    40  36  86 E7        30.09R
GARRISON         N/A     46  40  79 CALM      30.13R
HETTINGER ARPT CLEAR     41  38  89 E8        30.11R
JAMESTOWN      PTCLDY    53  43  68 SW10      30.16R
BEACH          CLOUDY    41  41 100 SE8       30.09R
CARRINGTON     FAIR      48  46  93 SW7       30.15S
CROSBY         FAIR      48  41  76 S12       30.12S
HARVEY         FAIR      46  45  93 CALM      30.13S
HAZEN          FAIR      37  37 100 SE3       30.14S
LINTON         FAIR      39  39 100 E7        30.16S
MANDAN         PTSUNNY   46  41  81 SE6       30.16S
OAKES            N/A     48  48 100 SW6       30.19R
STANLEY        FAIR      43  43 100 CALM      30.14S
TIOGA          FAIR      39  39 100 E3        30.15S
WATFORD CITY   FAIR      41  36  81 CALM      30.09S
$$

CITY           SKY/WX    TMP DP  RH WIND       PRES   REMARKS
GRAND FORKS    CLEAR     48  40  73 SE8       30.13S
GRAND FORKS AF CLEAR     45  39  82 S2        30.13S
DEVILS LAKE    CLEAR     52  39  62 CALM      30.12S
FARGO          CLEAR     52  45  77 S7        30.16R
CANDO          FAIR      46  37  71 CALM      30.13S
CAVALIER       FAIR      46  39  76 CALM      30.12R
GRAFTON        FAIR      46  43  87 S6        30.14R
LANGDON        FAIR      43  36  75 S7        30.14S
ROLLA          FAIR      48  37  66 SW10      30.13S
WALHALLA       FAIR      57  34  41 SW3       30.12R
$$

CITY           SKY/WX    TMP DP  RH WIND       PRES   REMARKS
ABERDEEN       PTCLDY    43  40  89 SE6       30.19S
MOBRIDGE       CLEAR     45  42  89 E9        30.13R
BUFFALO          N/A     44  40  85 E12       29.99S
RAPID CITY     CLOUDY    48  44  86 S9        30.06S
GLASGOW        MOCLDY    55  42  61 E12       30.03S
SIDNEY         CLEAR     46  37  71 N3        30.10R
WOLF POINT     PTCLDY    52  41  66 E8        30.07R
GLENDIVE       CLEAR     45  37  76 E7        30.08R
MILES CITY     PTCLDY    51  40  65 SE10      30.00R
BAKER          CLEAR     40  37  89 E7        30.06R
$$

CITY           SKY/WX    TMP DP  RH WIND       PRES   REMARKS
BILLINGS       CLOUDY    51  45  79 N5        29.96R
GREAT FALLS    PTCLDY    50  43  77 E8        30.00R
REGINA         PTCLDY    48  37  66 E9        30.10R
ESTEVAN        MOCLDY    54  41  62 S6        30.11S
$$




USA.gov is the U.S. government's official web portal to all federal, state and local government web resources and services.